Regional Weather Roundup
Issued by NWS

Home | Current Version | Previous Version | Graphics & Text | Print | Product List | Glossary On
Versions: 1 2 3 4 5 6 7 8 9 10 11 12 13 14 15 16 17 18 19 20 21 22 23 24 25 26 27 28 29 30 31 32 33 34 35 36 37 38 39 40 41 42 43 44 45 46 47 48 49 50
000
ASUS43 KMKX 180300
RWRWI

WISCONSIN REGIONAL WEATHER ROUNDUP
NATIONAL WEATHER SERVICE MILWAUKEE/SULLIVAN WI
1000 PM CDT THU AUG 17 2017

NOTE: "FAIR" INDICATES FEW OR NO CLOUDS BELOW 12,000 FEET WITH NO
SIGNIFICANT WEATHER AND/OR OBSTRUCTIONS TO VISIBILITY.

WIZ001-002-006>008-014>016-023>028-180400-
NORTHWEST WISCONSIN

CITY           SKY/WX    TMP DP  RH WIND       PRES   REMARKS
SUPERIOR ARPT    N/A     63  60  89 NW7       29.78R
ASHLAND        CLOUDY    63  60  90 NW8       29.74R
HAYWARD        CLOUDY    63  60  90 VRB6      29.77S
SIREN          CLOUDY    64  60  86 NW7       29.80S
CUMBERLAND     CLOUDY    61  59  94 N14G22    29.80R
RICE LAKE      CLOUDY    63  60  89 NW8G16    29.81R
CHETEK         CLOUDY    64  62  93 NW6       29.78R
LADYSMITH      CLOUDY    64  61  93 NW10G18   29.77R
EAU CLAIRE     CLOUDY    64  62  93 NW12      29.78R
MENOMONIE      CLOUDY    67  61  81 NW15      29.79R
NEW RICHMOND   CLOUDY    66  62  85 NW8       29.82R
OSCEOLA        CLOUDY    67  61  80 NW5       29.84R
$$

WIZ003>005-009-010-017-018-180400-
NORTH CENTRAL WISCONSIN

CITY           SKY/WX    TMP DP  RH WIND       PRES   REMARKS
MANITOWISH WTR CLOUDY    59  59 100 NW10G16   29.70R
ARBOR VITAE    CLOUDY    62  59  90 NW12G17   29.69R
WOODRUFF       CLOUDY    62  59  90 NW12G17   29.69R
RHINELANDER    CLOUDY    61  58  90 NW9G23    29.69R
EAGLE RIVER    CLOUDY    59  58  97 NW10G18   29.67R
LAND O LAKES   CLOUDY    59  58  96 NW8G16    29.68R
PHILLIPS       CLOUDY    60  60 100 NW6       29.73R
TOMAHAWK         N/A     59  57  93 NW5       29.71R FOG
MEDFORD        CLOUDY    61  59  92 NW10      29.73R
MERRILL        NOT AVBL
$$

WIZ029-030-035-036-043>047-180400-
CENTRAL WISCONSIN

CITY           SKY/WX    TMP DP  RH WIND       PRES   REMARKS
WAUSAU         CLOUDY    63  59  87 NW13      29.69R
MOSINEE        CLOUDY    63  61  94 NW14      29.72R
MARSHFIELD     CLOUDY    63  60  90 NW13      29.73R
STEVENS POINT  CLOUDY    64  60  87 NW9G20    29.71R
WAUPACA        CLOUDY    68  63  82 W12G17    29.68R
WAUTOMA        CLOUDY    66  61  84 W13       29.72R
WISC RAPIDS    CLOUDY    63  62  97 W9        29.74R
CAMP DOUGLAS   CLOUDY    66  61  84 NW13G20   29.76R
$$

WIZ011>013-019>022-031-037>040-048>050-180400-
NORTHEAST WISCONSIN

CITY           SKY/WX    TMP DP  RH WIND       PRES   REMARKS
ANTIGO         CLOUDY    60  59  94 NW15G26   29.67R
SHAWANO        CLOUDY    67  64  90 W10G16    29.63R
OCONTO         CLEAR     68  67  95 W8        29.57R
STURGEON BAY   MOCLDY    69  67  93 W16       29.57S
GREEN BAY      CLOUDY    67  65  93 W15G26    29.62S
MANITOWOC      CLOUDY    70  64  83 W17G23    29.64R
APPLETON       CLOUDY    66  63  88 W14       29.65R
CLINTONVILLE   CLOUDY    64  61  88 W14       29.64R
OSHKOSH        CLOUDY    66  61  84 W9G18     29.68R
$$

WIZ032>034-041-042-053>061-180400-
SOUTHWEST WISCONSIN

CITY           SKY/WX    TMP DP  RH WIND       PRES   REMARKS
LA CROSSE      CLOUDY    69  65  86 NW3       29.78R
SPARTA         CLOUDY    65  61  86 W8        29.78R
VIROQUA        CLOUDY    65  65 100 NW8       29.81R
BOSCOBEL       CLOUDY    72  65  78 W6        29.79R
PRAIRIE DU CHI PTCLDY    70  62  77 W7        29.79R
PLATTEVILLE    CLEAR     68  67  98 W9        29.81R
$$

WIZ056-057-062-063-064-067-068-180400-
SOUTH CENTRAL WISCONSIN

CITY           SKY/WX    TMP DP  RH WIND       PRES   REMARKS
REEDSBURG      CLOUDY    67  63  86 NW14      29.76R
BARABOO/DELLS  CLOUDY    67  59  77 NW10G17   29.75S
LONE ROCK      NOT AVBL
MINERAL POINT  LGT RAIN  70  68  94 W12G17    29.79R
MADISON        CLOUDY    68  62  81 NW8       29.75R
MIDDLETON      CLOUDY    69  63  82 W7        29.76S
WATERTOWN      CLOUDY    66  66 100 W8        29.74R
MONROE         MOCLDY    68  63  83 W12G17    29.78S
JANESVILLE     CLOUDY    70  63  78 W8        29.77R
$$

WIZ051-052-058>065-066-070>072-180400-
SOUTHEAST WISCONSIN

CITY           SKY/WX    TMP DP  RH WIND       PRES   REMARKS
MILWAUKEE      CLOUDY    72  64  76 W13G25    29.72R
WAUKESHA       NOT AVBL
MILWAUKEE/TIMM CLOUDY    68  61  77 W14G23    29.72R
RACINE         MOCLDY    71  64  78 W13       29.73R
KENOSHA        MOCLDY    71  63  75 W17G25    29.73S
FOND DU LAC    CLOUDY    68  60  75 W12G21    29.70R
SHEBOYGAN      CLOUDY    68  64  87 W15G26    29.67R
WEST BEND      CLOUDY    64  63  94 W12G17    29.71R
JUNEAU         CLOUDY    65  62  90 W8        29.74R
$$

LSZ147-162-180400-
LAKE SUPERIOR

STATION/POSITION TIME  TEMP    WIND        PRES    WAVE
                       AIR SEA DIR/SP/G            HT/PER
                 (UTC) (F)     (DEG/KT/KT) (MB)    (FT/S)
W MID LAKE BUOY  0150   60 60  290/ 14/ 16 1003.8R   4/ 6
DEVILS ISLAND    0200   63     320/ 16/ 17 1005.9R
SAXON HARBOR     0240   65     300/ 11/ 16 1006.1R
$$

LMZ867-665-643>646-180400-
LAKE MICHIGAN

STATION/POSITION TIME  TEMP    WIND        PRES    WAVE
                       AIR SEA DIR/SP/G            HT/PER
                 (UTC) (F)     (DEG/KT/KT) (MB)    (FT/S)
S GREEN BAY BUOY 0230   71 72  230/ 19/ 23 1001.3R
N MID LAKE BUOY  0150   69 67  190/ 17/ 21 1000.2F   5/ 6
NORTHPORT PIER   0240   70     230/  3/  7 1000.0S
KEWAUNEE LAKESHO 0230   70     260/ 14/ 22 1001.5R
SHEBOYGAN LAKESH 0200   71     250/ 16/ 18 1003.3R
PORT WASHINGTON  0230   71     270/ 13/ 19 1006.1R
ATWATER BUOY     0109   73 69  230/ 16/ 21 1005.3R
MILWAUKEE LAKESH 0230   70     270/ 15/ 19   N/A
S MID LAKE BUOY  0150   74 71  270/ 12/ 14 1005.7R   3/ 4
KENOSHA   LAKESH 0200   74     250/ 17/ 24 1006.4
$$

TC  - TEMPERATURE IN CELSIUS
VSB - VISIBILITY IN STATUTE MILES
WCI - WIND CHILL INDEX
HX  - HEAT INDEX





USA.gov is the U.S. government's official web portal to all federal, state and local government web resources and services.